TimeCEST,TemperatureF,Dew PointF,Humidity,Sea Level PressureIn,VisibilityMPH,Wind Direction,Wind SpeedMPH,Gust SpeedMPH,PrecipitationIn,Events,Conditions,WindDirDegrees,DateUTC
12:55 AM,42.8,33.8,70,30.12,-9999.0,North,11.5,-,N/A,,Clear,360,2012-10-07 22:55:00
3:55 AM,41.0,24.8,53,30.12,-9999.0,North,12.7,-,N/A,,Clear,10,2012-10-08 01:55:00
4:55 AM,39.2,23.0,52,30.12,-9999.0,North,10.4,-,N/A,,Clear,350,2012-10-08 02:55:00
5:00 AM,40,23,37,,31,North,10.4,,,,Scattered Clouds,350,2012-10-08 03:00:00
5:55 AM,39.2,23.0,52,30.12,-9999.0,North,2.3,-,N/A,,Clear,360,2012-10-08 03:55:00
6:55 AM,39.2,23.0,52,30.12,-9999.0,Variable,1.2,-,N/A,,Clear,0,2012-10-08 04:55:00
7:55 AM,39.2,24.8,56,30.12,-9999.0,South,4.6,-,N/A,,Clear,170,2012-10-08 05:55:00
8:00 AM,39,25,45,,31,South,4.6,,,,Clear,170,2012-10-08 06:00:00
8:55 AM,39.2,24.8,56,30.15,-9999.0,ENE,8.1,-,N/A,,Clear,60,2012-10-08 06:55:00
9:55 AM,41.0,19.4,42,30.15,-9999.0,ENE,6.9,-,N/A,,Clear,60,2012-10-08 07:55:00
10:55 AM,41.0,24.8,53,30.15,-9999.0,SSW,4.6,-,N/A,,Clear,200,2012-10-08 08:55:00
11:00 AM,41,25,40,,31,SSW,4.6,,,,Scattered Clouds,200,2012-10-08 09:00:00
11:55 AM,42.8,28.4,57,30.15,-9999.0,South,6.9,-,N/A,,Clear,180,2012-10-08 09:55:00
12:55 PM,42.8,30.2,61,30.15,-9999.0,SW,8.1,-,N/A,,Clear,220,2012-10-08 10:55:00
1:55 PM,44.6,33.8,66,30.12,-9999.0,SSW,9.2,-,N/A,,Clear,210,2012-10-08 11:55:00
2:00 PM,44,33,55,,31,SSW,9.2,,,,Mostly Cloudy,210,2012-10-08 12:00:00
2:55 PM,44.6,37.4,76,30.12,-9999.0,SW,12.7,-,N/A,,Clear,230,2012-10-08 12:55:00
3:55 PM,42.8,41.0,93,30.09,0.2,WSW,8.1,-,N/A,Fog,Fog,240,2012-10-08 13:55:00
4:55 PM,44.6,41.0,87,30.09,0.6,Variable,3.5,-,N/A,Fog,Fog,0,2012-10-08 14:55:00
5:00 PM,44,42,88,,1,,3.5,,,Fog,Heavy Fog,,2012-10-08 15:00:00
5:55 PM,44.6,41.0,87,30.09,0.6,Variable,2.3,-,N/A,Fog,Fog,0,2012-10-08 15:55:00
6:55 PM,42.8,39.2,87,30.06,0.6,SW,3.5,-,N/A,Fog,Fog,230,2012-10-08 16:55:00
7:55 PM,41.0,39.2,93,30.09,0.6,WSW,4.6,-,N/A,Fog,Fog,240,2012-10-08 17:55:00
8:00 PM,42,39,87,,1,WSW,4.6,,,Fog,Heavy Fog,240,2012-10-08 18:00:00
8:55 PM,41.0,39.2,93,30.06,0.1,SSW,5.8,-,N/A,Fog,Fog,210,2012-10-08 18:55:00
9:55 PM,41.0,41.0,100,30.06,0.0,SSW,3.5,-,N/A,Fog,Fog,200,2012-10-08 19:55:00
10:55 PM,41.0,41.0,100,30.06,0.0,SW,4.6,-,N/A,Fog,Fog,230,2012-10-08 20:55:00
11:00 PM,40,40,100,,0,SW,4.6,,,Fog,Heavy Fog,230,2012-10-08 21:00:00
11:55 PM,41.0,41.0,100,30.06,0.0,WSW,9.2,-,N/A,Fog,Fog,240,2012-10-08 21:55:00